Terug naar catalogus

ABS 4

MBSAT

ActiefCommunicatieGEO
NORAD 28184·PAYLOAD·🇦🇪 UAE🇧🇲 BM

Gelanceerd Mar 13, 2004 vanaf Cape Canaveral Space Force Station

Loading…

TLE

VersSource: Space-Track

Epoch: Sep 14, 2026, 14:05 UTC

1 28184U 04007A   26257.58723440  .00000032  00000-0  00000-0 0  9994
2 28184   6.2612  70.8771 0005266 110.0984  85.0052  1.00274631 53231

Volg ABS 4 in realtime met AllMySat

Download on the App Store